DW1105 Weather Reports


Display with metric or nautical units.
time (UTC)temp
F
wind
direction
speed
MPH
gust
MPH
rain 1hr
in
rain 24hr
in
rain mn
in
humidity
%
barometer
mb
20260505073816 55 144 1.0 2.0 0.00 0.00 0.00 78 1009.2
20260505073317 55 5 0.0 0.0 0.00 0.00 0.00 78 1009.3
20260505072812 55 5 0.0 1.0 0.00 0.00 0.00 78 1009.3
20260505072328 55 335 0.0 1.0 0.00 0.00 0.00 78 1009.2
20260505071824 56 14 0.0 0.0 0.00 0.00 0.00 77 1009.1
20260505071320 56 14 0.0 1.0 0.00 0.00 0.00 76 1009.2
20260505070816 56 14 0.0 2.0 0.00 0.00 0.00 75 1009.2
20260505070313 57 11 0.0 2.0 0.00 0.00 0.00 74 1009.2
20260505065812 58 79 0.0 1.0 0.00 0.00 0.00 70 1009.3
20260505065329 58 79 0.0 1.0 0.00 0.00 0.00 70 1009.3
20260505064825 58 75 0.0 2.0 0.00 0.00 0.00 69 1009.4
20260505064320 58 86 0.0 2.0 0.00 0.00 0.00 69 1009.4
20260505063816 58 145 0.0 2.0 0.00 0.00 0.00 69 1009.4
20260505063313 58 291 0.0 1.0 0.00 0.00 0.00 69 1009.4
20260505062829 58 263 0.0 3.0 0.00 0.00 0.00 69 1009.4
20260505062329 58 187 0.0 4.0 0.00 0.00 0.00 69 1009.5
20260505061825 58 11 1.0 4.0 0.00 0.00 0.00 71 1009.5
20260505061319 57 53 1.0 5.0 0.00 0.00 0.00 72 1009.4
20260505060816 56 69 1.0 6.0 0.00 0.00 0.00 73 1009.4
20260505060312 55 105 0.0 4.0 0.00 0.00 0.00 74 1009.4
20260505055828 55 75 1.0 4.0 0.00 0.00 0.00 74 1009.4
20260505055325 55 146 1.0 2.0 0.00 0.00 0.00 74 1009.5
20260505054826 55 113 0.0 0.0 0.00 0.00 0.00 72 1009.5
20260505054321 56 113 0.0 0.0 0.00 0.00 0.00 71 1009.6
20260505053817 56 113 0.0 0.0 0.00 0.00 0.00 69 1009.6
20260505053314 56 113 0.0 0.0 0.00 0.00 0.00 69 1009.6
20260505052828 56 113 0.0 0.0 0.00 0.00 0.00 68 1009.6
20260505052325 57 113 0.0 0.0 0.00 0.00 0.00 68 1009.6
20260505051822 57 113 0.0 0.0 0.00 0.00 0.00 68 1009.7
20260505051322 57 113 0.0 0.0 0.00 0.00 0.00 67 1009.8
20260505050817 57 113 0.0 0.0 0.00 0.00 0.00 67 1009.8
20260505050314 57 113 0.0 1.0 0.00 0.00 0.00 67 1009.8
20260505041322 56 104 0.0 0.0 0.00 0.00 0.00 67 1010.0
20260505040314 57 104 0.0 0.0 0.00 0.00 0.00 65 1009.8
20260505035813 57 104 0.0 0.0 0.00 0.00 0.00 63 1009.8
20260505035329 57 104 0.0 0.0 0.00 0.00 0.00 60 1009.8
20260505034826 58 104 0.0 0.0 0.00 0.00 0.00 59 1009.8
20260505034321 58 104 0.0 0.0 0.00 0.00 0.00 59 1009.8
20260505033818 58 104 0.0 0.0 0.00 0.00 0.00 58 1009.7
20260505033315 58 104 0.0 0.0 0.00 0.00 0.00 58 1009.8
20260505032810 58 104 0.0 0.0 0.00 0.00 0.00 57 1009.9
20260505032311 58 104 0.0 0.0 0.00 0.00 0.00 57 1009.9
20260505031827 59 104 0.0 0.0 0.00 0.00 0.00 57 1009.9
20260505031321 59 104 0.0 0.0 0.00 0.00 0.00 57 1009.9
20260505030818 59 104 0.0 0.0 0.00 0.00 0.00 57 1010.0
20260505030315 58 104 0.0 0.0 0.00 0.00 0.00 57 1010.0
20260505025829 58 104 0.0 0.0 0.00 0.00 0.00 57 1010.0
20260505025326 58 104 0.0 0.0 0.00 0.00 0.00 57 1010.1
20260505024823 58 104 0.0 0.0 0.00 0.00 0.00 58 1010.1
20260505024322 58 104 0.0 0.0 0.00 0.00 0.00 58 1010.1
20260505023817 58 104 0.0 0.0 0.00 0.00 0.00 58 1010.1
20260505023314 58 104 0.0 0.0 0.00 0.00 0.00 60 1010.2
20260505022829 59 104 0.0 0.0 0.00 0.00 0.00 59 1010.1
20260505022325 59 104 0.0 0.0 0.00 0.00 0.00 56 1010.1
20260505021822 60 104 0.0 0.0 0.00 0.00 0.00 55 1010.1
20260505021319 60 104 0.0 1.0 0.00 0.00 0.00 56 1010.1
20260505020818 60 104 0.0 1.0 0.00 0.00 0.00 56 1010.2
20260505020315 61 104 0.0 0.0 0.00 0.00 0.00 54 1010.2
20260505015829 61 104 0.0 0.0 0.00 0.00 0.00 53 1010.2
20260505015325 61 104 0.0 0.0 0.00 0.00 0.00 53 1010.2
20260505014821 61 104 0.0 1.0 0.00 0.00 0.00 52 1010.1
20260505014317 62 104 0.0 1.0 0.00 0.00 0.00 52 1010.1
20260505013813 62 104 0.0 2.0 0.00 0.00 0.00 52 1010.0
20260505013314 62 104 0.0 2.0 0.00 0.00 0.00 51 1009.9
20260505012810 62 184 0.0 2.0 0.00 0.00 0.00 51 1009.9
20260505012326 63 184 0.0 0.0 0.00 0.00 0.00 50 1009.7
20260505011823 63 184 0.0 0.0 0.00 0.00 0.00 49 1009.7
20260505011319 63 184 0.0 0.0 0.00 0.00 0.00 48 1009.7
20260505010814 63 184 0.0 0.0 0.00 0.00 0.00 48 1009.6
20260505010311 64 184 0.0 2.0 0.00 0.00 0.00 47 1009.5
20260505005830 64 184 0.0 2.0 0.00 0.00 0.00 47 1009.5
20260505005327 64 146 0.0 1.0 0.00 0.00 0.00 47 1009.4
20260505004823 64 140 0.0 2.0 0.00 0.00 0.00 47 1009.4
20260505004318 64 140 0.0 2.0 0.00 0.00 0.00 47 1009.4
20260505003814 65 90 0.0 2.0 0.00 0.00 0.00 46 1009.3
20260505003311 65 151 0.0 2.0 0.00 0.00 0.00 46 1009.1
20260505002827 65 155 0.0 0.0 0.00 0.00 0.00 45 1009.2
20260505002328 65 155 0.0 0.0 0.00 0.00 0.00 46 1009.1
20260505001824 65 155 0.0 0.0 0.00 0.00 0.00 45 1009.0
20260505001319 65 173 0.0 2.0 0.00 0.00 0.00 45 1009.1
20260505000814 66 173 0.0 2.0 0.00 0.00 0.00 45 1009.0
20260505000310 66 188 0.0 2.0 0.00 0.00 0.00 44 1008.9
20260504235827 66 122 1.0 2.0 0.00 0.00 0.00 44 1008.9
20260504235323 66 167 0.0 1.0 0.00 0.00 0.00 43 1008.7
20260504234823 67 186 0.0 1.0 0.00 0.00 0.00 43 1008.6
20260504234319 67 171 0.0 1.0 0.00 0.00 0.00 43 1008.5
20260504233815 67 171 0.0 1.0 0.00 0.00 0.00 43 1008.5
20260504233312 67 137 0.0 0.0 0.00 0.00 0.00 42 1008.5
20260504232828 68 137 0.0 2.0 0.00 0.00 0.00 41 1008.4
20260504232324 68 137 0.0 4.0 0.00 0.00 0.00 41 1008.3
20260504231820 68 191 1.0 4.0 0.00 0.00 0.00 40 1008.4
20260504231320 69 202 1.0 3.0 0.00 0.00 0.00 40 1008.2
20260504230816 69 98 0.0 3.0 0.00 0.00 0.00 40 1008.2
20260504230312 69 135 1.0 3.0 0.00 0.00 0.00 40 1008.1
20260504225828 69 153 0.0 4.0 0.00 0.00 0.00 40 1008.0
20260504225325 69 99 1.0 4.0 0.00 0.00 0.00 39 1008.0
20260504224821 69 193 0.0 2.0 0.00 0.00 0.00 39 1008.0
20260504224316 70 149 0.0 2.0 0.00 0.00 0.00 38 1008.0
20260504223816 70 193 0.0 2.0 0.00 0.00 0.00 38 1008.1
20260504223313 70 144 0.0 2.0 0.00 0.00 0.00 39 1008.1
20260504222829 70 146 0.0 3.0 0.00 0.00 0.00 37 1008.1
20260504222326 71 146 0.0 2.0 0.00 0.00 0.00 37 1008.1
20260504221821 71 88 0.0 8.0 0.00 0.00 0.00 38 1008.2
20260504221316 71 179 1.0 4.0 0.00 0.00 0.00 37 1008.3
20260504220813 71 135 1.0 4.0 0.00 0.00 0.00 37 1008.2
20260504220314 71 240 0.0 3.0 0.00 0.00 0.00 38 1008.3
20260504215829 71 163 1.0 3.0 0.00 0.00 0.00 37 1008.3
20260504215325 71 173 1.0 4.0 0.00 0.00 0.00 37 1008.3
20260504214821 71 218 1.0 4.0 0.00 0.00 0.00 39 1008.3
20260504214317 71 108 1.0 5.0 0.00 0.00 0.00 37 1008.4
20260504213814 71 150 1.0 5.0 0.00 0.00 0.00 37 1008.6
20260504213310 71 241 1.0 5.0 0.00 0.00 0.00 37 1008.6
20260504212825 72 108 2.0 6.0 0.00 0.00 0.00 36 1008.6
20260504212326 72 96 1.0 6.0 0.00 0.00 0.00 36 1008.6
20260504211822 72 282 3.0 5.0 0.00 0.00 0.00 35 1008.6
20260504211318 73 32 1.0 3.0 0.00 0.00 0.00 35 1008.5
20260504210814 72 11 1.0 3.0 0.00 0.00 0.00 36 1008.6
20260504210311 72 5 1.0 8.0 0.00 0.00 0.00 36 1008.5
20260504205827 72 173 1.0 8.0 0.00 0.00 0.00 35 1008.6
20260504205323 73 329 2.0 6.0 0.00 0.00 0.00 34 1008.6
20260504204823 73 189 0.0 10.0 0.00 0.00 0.00 36 1008.6
20260504204319 73 339 2.0 15.0 0.00 0.00 0.00 35 1008.6
20260504203815 73 49 1.0 3.0 0.00 0.00 0.00 37 1008.4
20260504203312 73 182 1.0 6.0 0.00 0.00 0.00 34 1008.5
20260504202828 73 317 1.0 6.0 0.00 0.00 0.00 35 1008.5
20260504202324 74 224 2.0 4.0 0.00 0.00 0.00 34 1008.5
20260504201820 73 198 1.0 8.0 0.00 0.00 0.00 35 1008.6
20260504201320 72 203 2.0 10.0 0.00 0.00 0.00 33 1008.6
20260504200816 72 288 2.0 9.0 0.00 0.00 0.00 34 1008.6
20260504200313 72 36 3.0 9.0 0.00 0.00 0.00 33 1008.6
20260504195827 72 330 1.0 6.0 0.00 0.00 0.00 34 1008.7
20260504195324 72 102 1.0 6.0 0.00 0.00 0.00 36 1008.9
20260504194820 72 74 0.0 9.0 0.00 0.00 0.00 34 1008.8
20260504194315 73 129 4.0 9.0 0.00 0.00 0.00 32 1008.9
20260504193815 73 311 1.0 6.0 0.00 0.00 0.00 33 1008.8
20260504193312 73 344 3.0 7.0 0.00 0.00 0.00 33 1008.8
20260504192829 73 292 1.0 4.0 0.00 0.00 0.00 35 1008.8
20260504192325 72 174 1.0 4.0 0.00 0.00 0.00 34 1008.8
20260504191821 72 195 1.0 5.0 0.00 0.00 0.00 33 1008.9
20260504191316 73 307 3.0 5.0 0.00 0.00 0.00 35 1009.1
20260504190812 72 202 3.0 10.0 0.00 0.00 0.00 34 1009.1
20260504190313 71 333 3.0 10.0 0.00 0.00 0.00 34 1009.1
20260504185829 71 347 2.0 9.0 0.00 0.00 0.00 36 1009.3
20260504185325 72 288 3.0 8.0 0.00 0.00 0.00 35 1009.4
20260504184821 72 204 2.0 8.0 0.00 0.00 0.00 35 1009.4
20260504184316 72 111 2.0 7.0 0.00 0.00 0.00 33 1009.4
20260504183812 72 200 1.0 8.0 0.00 0.00 0.00 34 1009.5
20260504183329 71 355 2.0 6.0 0.00 0.00 0.00 37 1009.7
20260504182828 72 338 3.0 10.0 0.00 0.00 0.00 36 1009.7
20260504182324 71 316 1.0 10.0 0.00 0.00 0.00 36 1009.8
20260504181820 72 230 2.0 5.0 0.00 0.00 0.00 34 1009.8
20260504181316 72 157 1.0 4.0 0.00 0.00 0.00 35 1009.8
20260504180812 72 206 1.0 8.0 0.00 0.00 0.00 34 1009.8
20260504180328 70 160 3.0 8.0 0.00 0.00 0.00 36 1009.8
20260504175824 70 323 2.0 10.0 0.00 0.00 0.00 37 1009.9
20260504175324 69 317 2.0 10.0 0.00 0.00 0.00 37 1010.0
20260504174820 69 244 4.0 10.0 0.00 0.00 0.00 35 1010.1
20260504174315 70 5 3.0 7.0 0.00 0.00 0.00 35 1010.1
20260504173811 70 203 1.0 8.0 0.00 0.00 0.00 35 1010.1
20260504173328 69 63 3.0 8.0 0.00 0.00 0.00 36 1010.0
20260504172823 69 88 2.0 9.0 0.00 0.00 0.00 35 1010.2
20260504172320 69 211 2.0 6.0 0.00 0.00 0.00 36 1010.5
20260504171820 68 265 3.0 10.0 0.00 0.00 0.00 36 1010.5
20260504171315 69 355 2.0 17.0 0.00 0.00 0.00 35 1010.7
20260504170812 69 232 2.0 17.0 0.00 0.00 0.00 39 1010.6
20260504170328 68 111 2.0 9.0 0.00 0.00 0.00 37 1010.7
20260504160329 67 75 2.0 7.0 0.00 0.00 0.00 37 1011.1
20260504150827 65 278 3.0 9.0 0.00 0.00 0.00 41 1011.8
20260504150323 65 334 3.0 6.0 0.00 0.00 0.00 39 1011.9
20260504141313 63 321 3.0 10.0 0.00 0.00 0.00 39 1012.3
20260504140830 63 237 1.0 9.0 0.00 0.00 0.00 42 1012.3
20260504140326 62 205 1.0 9.0 0.00 0.00 0.00 41 1012.5
20260504130815 57 113 1.0 9.0 0.00 0.00 0.00 46 1012.7
20260504130312 57 281 2.0 15.0 0.00 0.00 0.00 45 1012.7
20260504110313 50 167 0.0 3.0 0.00 0.00 0.00 55 1013.1
20260504100349 48 281 0.0 0.0 0.00 0.00 0.00 56 1013.0
20260504081816 49 285 0.0 2.0 0.00 0.00 0.00 55 1012.6
20260504081312 50 284 0.0 2.0 0.00 0.00 0.00 53 1012.7
20260504080828 49 277 0.0 1.0 0.00 0.00 0.00 53 1012.6
20260504080328 49 257 0.0 3.0 0.00 0.00 0.00 53 1012.7